Location: Excel
(51.3833°N, 110.5667°W)
Time: 14:07:38
(UTC+00:00)

Envisat - Pass Details

Date: 08 December 2021
Orbit: 764 x 766 km, 98.2° (Epoch: 28 January)

Event Time Altitude Azimuth Distance (km) Brightness Sun altitude
Rises 13:01:29 0° 11° (NNE) 3,248 6.2 -19.5°
Reaches altitude 10° 13:03:50 10° 8° (N) 2,317 5.4 -19.2°
Maximum altitude 13:08:50 59° 290° (WNW) 885 3.0 -18.4°
Drops below altitude 10° 13:13:49 10° 212° (SSW) 2,299 5.3 -17.7°
Sets 13:16:08 0° 209° (SSW) 3,221 6.1 -17.3°
